N3WKE Weather Reports


time (UTC)temp
C
wind
direction
speed
KPH
gust
KPH
rain 1hr
cm
rain 24hr
cm
rain mn
cm
humidity
%
barometer
mb
20260507070037 13 17 0.0 8.0 0.00 0.58 0.30 85 1009.5
20260507064602 13 317 0.0 4.8 0.00 0.58 0.30 86 1009.5
20260507063031 13 346 0.0 1.6 0.03 0.58 0.30 89 1009.0
20260507061600 13 27 0.0 1.6 0.03 0.58 0.30 90 1009.2
20260507060037 13 29 0.0 0.0 0.08 0.58 0.30 90 1009.2
20260507054504 13 10 0.0 0.0 0.30 0.58 0.30 89 1009.3
20260507053027 13 334 0.0 3.2 0.28 0.56 0.28 88 1009.7
20260507051556 14 326 0.0 4.8 0.28 0.56 0.28 87 1009.4
20260507050039 15 360 0.0 6.4 0.23 0.51 0.23 83 1009.9
20260507044504 16 13 0.0 8.0 0.00 0.28 0.00 78 1009.2
20260507043041 16 18 0.0 9.7 0.00 0.28 0.00 76 1009.2
20260507041550 17 346 0.0 8.0 0.00 0.28 0.00 76 1008.8
20260507040022 17 10 0.0 4.8 0.00 0.28 0.00 78 1008.3
20260507034556 17 25 0.0 1.6 0.00 0.28 0.28 79 1008.2
20260507033032 17 360 0.0 0.0 0.00 0.28 0.28 79 1008.7
20260507031501 18 336 0.0 0.0 0.00 0.28 0.28 77 1008.5
20260507030040 18 329 0.0 1.6 0.00 0.28 0.28 75 1008.1
20260507024601 18 326 1.6 14.5 0.00 0.28 0.28 74 1008.1
20260507023041 18 22 0.0 16.1 0.00 0.28 0.28 74 1007.6
20260507021547 19 311 0.0 9.7 0.00 0.28 0.28 77 1007.9
20260507020027 20 345 0.0 16.1 0.00 0.28 0.28 81 1007.8
20260507014605 20 30 0.0 1.6 0.00 0.28 0.28 81 1007.8
20260507013029 20 267 0.0 0.0 0.00 0.28 0.28 82 1007.9
20260507011603 20 261 0.0 0.0 0.00 0.28 0.28 81 1007.8
20260507010032 20 260 0.0 0.0 0.00 0.28 0.28 81 1007.7
20260507004600 20 265 0.0 0.0 0.00 0.28 0.28 80 1007.6
20260507003030 20 248 0.0 0.0 0.00 0.28 0.28 80 1007.5
20260507001558 20 237 0.0 0.0 0.00 0.28 0.28 80 1007.2
20260507000036 20 231 0.0 0.0 0.00 0.28 0.28 80 1007.0
20260506234551 20 250 0.0 0.0 0.00 0.28 0.28 79 1006.9
20260506233035 20 238 0.0 1.6 0.00 0.28 0.28 79 1006.8
20260506231552 21 249 0.0 6.4 0.00 0.28 0.28 78 1006.7
20260506230024 21 246 0.0 4.8 0.00 0.28 0.28 77 1006.7
20260506224551 21 240 0.0 0.0 0.00 0.28 0.28 78 1006.5
20260506223042 21 250 0.0 1.6 0.00 0.28 0.28 78 1006.7
20260506221557 21 260 0.0 0.0 0.00 0.28 0.28 77 1006.7
20260506220032 21 229 0.0 3.2 0.00 0.28 0.28 76 1006.6
20260506214600 21 273 0.0 4.8 0.00 0.28 0.28 75 1006.5
20260506213049 21 214 0.0 6.4 0.00 0.28 0.28 76 1006.4
20260506211603 21 251 0.0 14.5 0.00 0.28 0.28 77 1006.2
20260506210033 21 236 0.0 12.9 0.00 0.28 0.28 77 1006.2
20260506204557 21 265 0.0 4.8 0.00 0.28 0.28 76 1006.1
20260506203047 21 239 0.0 20.9 0.00 0.28 0.28 76 1006.3
20260506201604 22 234 0.0 9.7 0.00 0.28 0.28 74 1006.1
20260506200034 21 219 0.0 17.7 0.00 0.28 0.28 76 1006.1
20260506194500 21 238 0.0 24.1 0.00 0.28 0.28 76 1006.2
20260506193038 21 219 1.6 17.7 0.00 0.28 0.28 76 1006.2
20260506191549 21 287 0.0 16.1 0.00 0.28 0.28 77 1006.4
20260506190041 20 254 1.6 24.1 0.00 0.28 0.28 79 1006.5
20260506184600 20 225 0.0 25.7 0.00 0.28 0.28 80 1006.9
20260506183057 19 211 6.4 24.1 0.00 0.28 0.28 80 1006.9
20260506181554 19 262 8.0 27.4 0.00 0.28 0.28 80 1007.0
20260506180028 19 244 0.0 17.7 0.00 0.28 0.28 81 1007.2
20260506174600 18 229 1.6 19.3 0.00 0.28 0.28 82 1007.2
20260506173029 18 228 3.2 37.0 0.00 0.28 0.28 83 1007.2
20260506171501 18 268 1.6 22.5 0.00 0.28 0.28 85 1007.2
20260506170059 17 218 0.0 12.9 0.00 0.28 0.28 87 1007.2
20260506164547 17 254 0.0 16.1 0.00 0.28 0.28 88 1007.5
20260506163053 17 223 1.6 30.6 0.00 0.28 0.28 89 1007.5
20260506161548 17 244 0.0 24.1 0.00 0.28 0.28 89 1007.7
20260506160023 16 233 0.0 29.0 0.03 0.28 0.28 90 1007.7
20260506154552 16 252 1.6 19.3 0.05 0.28 0.28 91 1008.0
20260506153027 16 232 1.6 20.9 0.10 0.28 0.28 91 1007.6
20260506151602 16 258 1.6 17.7 0.13 0.28 0.28 91 1008.2
20260506150034 16 232 0.0 16.1 0.15 0.25 0.25 91 1008.6
20260506144558 16 221 0.0 8.0 0.15 0.23 0.23 90 1008.6
20260506143035 16 231 0.0 6.4 0.13 0.18 0.18 89 1008.4
20260506141545 16 233 0.0 9.7 0.15 0.15 0.15 89 1008.4
20260506140046 16 234 0.0 3.2 0.10 0.10 0.10 88 1008.6
20260506134550 17 221 0.0 3.2 0.05 0.05 0.05 86 1008.9
20260506133043 17 225 1.6 16.1 0.05 0.05 0.05 84 1008.9
20260506131554 17 251 0.0 14.5 0.00 0.00 0.00 82 1008.6
20260506130030 18 227 1.6 17.7 0.00 0.00 0.00 80 1008.4
20260506124556 18 222 0.0 16.1 0.00 0.00 0.00 79 1008.2
20260506123034 18 223 0.0 16.1 0.00 0.00 0.00 78 1008.5
20260506121548 18 251 0.0 14.5 0.00 0.00 0.00 78 1008.7
20260506120042 18 219 0.0 16.1 0.00 0.00 0.00 75 1008.7
20260506114551 18 240 0.0 22.5 0.00 0.00 0.00 74 1008.5
20260506113038 18 255 0.0 22.5 0.00 0.00 0.00 74 1008.3
20260506111549 18 252 0.0 14.5 0.00 0.00 0.00 74 1008.1
20260506110031 18 236 0.0 19.3 0.00 0.00 0.00 74 1008.0
20260506104559 18 209 0.0 11.3 0.00 0.00 0.00 74 1007.9
20260506103029 18 240 0.0 11.3 0.00 0.00 0.00 74 1007.8
20260506101557 18 232 0.0 16.1 0.00 0.00 0.00 73 1007.8
20260506100035 18 238 0.0 17.7 0.00 0.00 0.00 72 1007.7
20260506094544 19 242 0.0 22.5 0.00 0.00 0.00 72 1007.8
20260506093036 19 234 1.6 17.7 0.00 0.00 0.00 72 1007.7
20260506091547 19 249 0.0 9.7 0.00 0.00 0.00 71 1007.8
20260506090048 20 215 0.0 12.9 0.00 0.00 0.00 70 1007.9
20260506084601 20 225 0.0 25.7 0.00 0.00 0.00 69 1008.0
20260506083043 20 245 1.6 16.1 0.00 0.00 0.00 68 1008.0
20260506081552 20 241 1.6 12.9 0.00 0.00 0.00 68 1007.9
20260506073030 21 211 0.0 20.9 0.00 0.00 0.00 64 1007.9
20260506071543 21 232 0.0 8.0 0.00 0.00 0.00 63 1008.1